Regional Weather Roundup
Issued by NWS Sioux Falls, SD

Home | Current Version | Previous Version | Graphics & Text | Print | Product List | Glossary On
Versions: 1 2 3 4 5 6 7 8 9 10 11 12 13 14 15 16 17 18 19 20 21 22 23 24 25 26 27 28 29 30 31 32 33 34 35 36 37 38 39 40 41 42 43 44 45 46 47 48 49 50
000
ASUS43 KFSD 260702
RWRFSD

WEATHER ROUNDUP FOR SE SOUTH DAKOTA/SW MINNESOTA/NW IOWA
NATIONAL WEATHER SERVICE SIOUX FALLS SD
200 AM CDT TUE MAY 26 2015

NOTE: "FAIR" INDICATES FEW OR NO CLOUDS BELOW 12,000 FEET WITH NO
SIGNIFICANT WEATHER AND OR OBSTRUCTIONS TO VISIBILITY.


SDZ038>040-050-052>070-260800-
SOUTHEAST SOUTH DAKOTA

CITY           SKY/WX    TMP DP  RH WIND       PRES   REMARKS
BROOKINGS      PTCLDY    52  48  87 N8        29.82F
CHAMBERLAIN    CLOUDY    55  49  81 N7        29.88S
HURON          CLOUDY    54  50  86 N8        29.85F
MADISON        PTSUNNY   50  50 100 NE7       29.82F
MITCHELL       MOCLDY    55  52  89 N10       29.84F
SIOUX FALLS    CLOUDY    57  54  89 NE7       29.80F
WINNER         PTSUNNY   53  48  83 N6        29.88S
YANKTON        CLOUDY    61  57  88 N7        29.77F
$$

MNZ071-072-080-081-089-090-097-098-260800-
SOUTHWEST MINNESOTA

CITY           SKY/WX    TMP DP  RH WIND       PRES   REMARKS
FAIRMONT       MOCLDY    61  55  82 NW6       29.79S
JACKSON        CLOUDY    59  55  88 N7        29.80F
LUVERNE        LGT RAIN  59  54  82 N5        29.80F
MARSHALL       MOCLDY    54  48  82 NW8       29.81S
MONTEVIDEO     CLOUDY    57  55  94 N5        29.81F
REDWOOD FALLS  PTCLDY    55  53  93 NW7       29.79F
TRACY          MOCLDY    55  54  95 NW6       29.81S
WINDOM         MOCLDY    57  54  88 W3        29.82S
WORTHINGTON    CLOUDY    55  52  88 NE6       29.80F
$$

IAZ001>003-012>014-020>022-031-032-NEZ013-014-SDZ071-260800-
NORTHWEST IOWA

CITY           SKY/WX    TMP DP  RH WIND       PRES   REMARKS
DENISON        CLOUDY    63  61  94 CALM      29.76F
ESTHERVILLE    CLOUDY    61  57  87 NW6       29.77F
SIOUX CITY     HVY RAIN  62  59  90 N7        29.78F FOG
SPENCER        CLOUDY    61  57  87 W5        29.79F
$$

ABBREVIATIONS USED IN REMARKS
   TC - TEMPERATURE IN CELSIUS
  WCI - WIND CHILL INDEX
   HX - HEAT INDEX
  VSB - VISIBILITY



USA.gov is the U.S. government's official web portal to all federal, state and local government web resources and services.